CAPE
0 0 0 0 0 0 0 0 0 40 295 723 950 980 878 724 723 674 685 643 567 386
0 0 0 0 0 0 0 0 0 45 82 238 571 899 1023 1013 914 854 660 835 840 604
31 0 0 0 0 0 0 0 7 95 174 205 346 618 856 972 1108 1101 1001 794 907 879
43 37 22 3 0 0 0 0 0 22 75 134 272 508 680 867 1095 1253 1312 1120 931 972
66 89 59 45 19 0 0 0 0 1 70 148 287 512 794 957 1100 1161 1278 1360 1255 1147
157 137 84 82 41 19 36 35 20 5 0 0 43 255 638 1017 1178 1219 1286 1343 1387 1381
280 207 177 168 183 93 45 54 31 75 58 72 149 283 553 839 972 1056 1161 1241 1370 1431
242 197 164 128 178 361 357 198 148 92 96 104 214 322 483 731 998 1296 1472 1421 1437 1452
223 276 256 208 149 106 144 336 369 280 233 145 167 206 266 473 510 669 948 1484 1569 1513
204 298 380 407 444 395 245 237 302 378 384 318 212 99 109 214 605 625 571 681 1068 1459
373 385 401 505 611 664 655 523 389 381 482 509 468 309 169 136 442 731 830 845 747 762
579 576 568 588 652 822 1005 1002 835 749 639 632 694 557 433 427 611 755 896 1108 1182 1223
748 786 844 820 768 866 1092 1221 1429 1382 1358 1160 1058 1002 781 724 1088 1127 1133 1210 1326 1270
771 849 896 991 1164 1307 1341 1438 1557 1656 1750 1797 1597 1635 1360 1134 1383 1531 1645 1707 1810 1909
CIN
0 0 0 0 0 0 0 0 0 -212 -69 -47 -43 -34 -44 -40 -43 -58 -65 -70 -92 -128
-7 0 0 0 0 0 0 0 0 -238 -160 -92 -56 -46 -39 -37 -38 -57 -102 -74 -88 -129
-349 0 0 0 0 0 0 0 -166 -187 -144 -130 -110 -86 -63 -50 -47 -43 -73 -116 -108 -120
-370 -372 -367 -363 -19 0 0 0 0 -262 -185 -161 -149 -115 -98 -82 -60 -47 -45 -84 -127 -123
-388 -389 -377 -384 -370 0 0 0 0 -80 -215 -181 -168 -139 -106 -84 -83 -83 -72 -76 -104 -108
-420 -430 -399 -386 -391 -379 -317 -305 -317 -67 0 0 -249 -193 -150 -109 -86 -98 -102 -98 -103 -96
-402 -407 -386 -364 -348 -354 -365 -339 -346 -315 -304 -283 -246 -219 -186 -156 -152 -144 -138 -143 -139 -126
-435 -428 -442 -446 -396 -323 -311 -332 -333 -349 -353 -346 -289 -267 -252 -213 -173 -146 -134 -135 -141 -150
-471 -445 -445 -442 -447 -456 -423 -371 -363 -366 -376 -384 -376 -341 -324 -277 -257 -229 -197 -136 -142 -156
-529 -511 -465 -455 -445 -439 -453 -482 -464 -419 -410 -417 -432 -442 -423 -374 -287 -290 -312 -294 -230 -192
-543 -530 -520 -492 -469 -439 -426 -458 -483 -474 -434 -414 -434 -450 -473 -476 -380 -335 -337 -352 -363 -358
-537 -499 -504 -497 -467 -422 -379 -398 -433 -440 -466 -464 -448 -473 -474 -475 -441 -434 -412 -376 -374 -377
-502 -498 -473 -460 -444 -450 -422 -397 -352 -361 -380 -433 -433 -456 -489 -499 -402 -412 -422 -415 -419 -436
-513 -491 -492 -471 -451 -443 -429 -401 -382 -353 -345 -345 -397 -381 -438 -473 -400 -382 -369 -381 -376 -370
Wind_Speed
37 37 35 31 31 31 29 26 23 23 22 21 21 21 19 19 20 21 21 20 20 19
35 32 34 33 33 32 30 30 27 23 22 21 21 22 21 20 21 20 21 20 20 19
31 33 36 32 35 34 31 29 27 24 21 21 21 21 21 21 21 21 21 21 21 20
39 28 33 33 36 36 33 28 25 24 22 22 20 19 19 22 22 22 22 22 21 22
23 19 34 34 36 34 32 26 23 23 26 25 21 18 18 21 21 23 22 23 23 24
22 20 39 38 35 32 30 29 26 25 27 29 29 23 20 20 21 22 23 23 25 27
27 37 44 44 36 33 33 32 30 28 29 29 28 27 24 22 21 21 25 25 25 28
41 41 39 46 40 37 35 34 31 28 29 29 29 29 27 23 24 24 28 29 28 28
36 36 42 46 43 40 38 33 26 27 25 26 28 29 28 24 27 30 32 31 29 28
34 36 45 43 42 41 33 18 24 24 23 26 30 31 29 28 29 31 33 32 29 24
29 37 34 35 41 38 14 18 20 23 29 30 31 29 28 29 30 32 33 30 27 24
24 26 26 30 31 28 21 11 22 27 31 29 33 29 27 24 25 31 31 29 24 19
26 28 28 27 27 28 31 37 39 36 29 27 30 27 25 23 22 28 22 19 19 19
24 28 29 25 21 18 15 26 35 29 34 30 20 14 14 17 17 16 20 16 16 15
Wind_Direction
193 197 197 195 198 199 196 191 186 186 186 186 187 186 179 176 177 177 179 180 179 182
191 191 195 195 199 200 198 200 194 187 186 187 187 188 185 183 186 182 183 184 183 184
190 192 195 193 199 202 198 194 193 188 185 187 187 189 187 190 189 187 190 190 190 190
200 190 192 194 199 202 200 192 189 190 190 192 189 186 186 193 194 194 196 196 194 198
236 230 192 194 198 198 197 191 189 189 197 198 191 186 187 193 194 199 200 204 203 207
235 206 196 197 196 195 195 196 193 193 199 204 205 197 193 194 196 200 204 206 209 214
236 193 203 205 197 196 198 199 198 198 202 203 204 204 202 200 201 204 210 210 210 215
235 236 238 221 200 199 200 201 200 200 203 205 206 208 207 204 206 208 216 218 215 216
237 239 233 212 206 204 204 201 198 202 203 206 208 210 210 208 212 216 220 221 220 220
237 236 226 228 233 207 198 200 200 203 204 208 212 213 213 213 213 217 220 221 219 217
240 236 241 242 233 240 238 200 200 203 207 211 213 212 212 212 213 217 220 218 218 219
237 241 244 245 248 253 260 239 197 203 208 208 215 210 209 206 208 215 217 218 217 218
242 244 246 250 254 256 255 248 238 217 206 206 211 207 206 205 206 213 213 216 219 222
244 244 246 252 258 261 263 263 219 206 216 209 203 210 211 207 208 213 285 282 286 286